Retour au catalogue

NOAA 16 DEB

ActifPO
NORAD 41404·DEBRIS·🇺🇸 United States

Lancé Sep 21, 2000 depuis Vandenberg Space Force Base

Loading…

Prochains Passages (prochaines 24 heures)

TLE

FraisSource: Space-Track

Époque: Sep 14, 2026, 12:29 UTC

1 41404U 00055KH  26257.52047819  .00004370  00000-0  10540-2 0  9997
2 41404  99.0065 140.9767 0023055 254.8218 105.0426 14.53595985551006

Suivez NOAA 16 DEB en temps réel avec AllMySat

Download on the App Store